Hourly Weather Musajid

Today, 6 December, Sunday

Time Temperature Precipitation Wind Pressure Humidity
00:00 +24°C° 0 mm 1 mps 759 mmHg 87%
01:00 +24°C° 0 mm 2 mps 759 mmHg 86%
02:00 +24°C° 0 mm 2 mps 758 mmHg 86%
03:00 +24°C° 0 mm 3 mps 758 mmHg 86%
04:00 +23°C° 0 mm 4 mps 758 mmHg 86%
05:00 +25°C° 0 mm 5 mps 758 mmHg 86%
06:00 +25°C° 0 mm 5 mps 759 mmHg 86%
07:00 +26°C° 0 mm 5 mps 759 mmHg 78%
08:00 +27°C° 0 mm 6 mps 759 mmHg 70%
09:00 +28°C° 0 mm 6 mps 759 mmHg 61%
10:00 +30°C° 0 mm 6 mps 759 mmHg 54%
11:00 +32°C° 0 mm 6 mps 759 mmHg 46%
12:00 +33°C° 0 mm 6 mps 758 mmHg 38%
13:00 +33°C° 0 mm 5 mps 758 mmHg 37%
14:00 +34°C° 0 mm 5 mps 757 mmHg 35%
15:00 +34°C° 0 mm 5 mps 756 mmHg 34%
16:00 +33°C° 0 mm 4 mps 757 mmHg 36%
17:00 +30°C° 0 mm 4 mps 758 mmHg 38%
18:00 +29°C° 0 mm 4 mps 758 mmHg 40%
19:00 +28°C° 0 mm 5 mps 758 mmHg 50%
20:00 +27°C° 0 mm 7 mps 759 mmHg 59%
21:00 +24°C° 0 mm 9 mps 759 mmHg 68%
22:00 +24°C° 0 mm 9 mps 759 mmHg 61%
23:00 +24°C° 0 mm 9 mps 760 mmHg 54%

Tomorrow, 7 December, Monday

Time Temperature Precipitation Wind Pressure Humidity
00:00 +23°C° 0 mm 9 mps 760 mmHg 46%
01:00 +23°C° 0 mm 9 mps 760 mmHg 48%
02:00 +22°C° 0 mm 8 mps 760 mmHg 50%
03:00 +21°C° 0 mm 8 mps 760 mmHg 52%
04:00 +21°C° 0 mm 7 mps 761 mmHg 58%
05:00 +20°C° 0 mm 7 mps 762 mmHg 63%
06:00 +20°C° 0 mm 6 mps 762 mmHg 69%
07:00 +21°C° 0 mm 7 mps 763 mmHg 66%
08:00 +23°C° 0 mm 7 mps 763 mmHg 63%
09:00 +24°C° 0 mm 7 mps 763 mmHg 59%
10:00 +26°C° 0 mm 7 mps 763 mmHg 54%
11:00 +27°C° 0 mm 7 mps 763 mmHg 49%
12:00 +27°C° 0 mm 6 mps 763 mmHg 45%
13:00 +27°C° 0 mm 7 mps 763 mmHg 46%
14:00 +26°C° 0 mm 7 mps 762 mmHg 48%
15:00 +26°C° 0 mm 8 mps 762 mmHg 50%
16:00 +24°C° 0 mm 8 mps 763 mmHg 55%
17:00 +22°C° 0 mm 7 mps 763 mmHg 61%
18:00 +21°C° 0 mm 7 mps 763 mmHg 66%
19:00 +20°C° 0 mm 7 mps 764 mmHg 68%
20:00 +20°C° 0 mm 6 mps 764 mmHg 71%
21:00 +19°C° 0 mm 6 mps 764 mmHg 73%
22:00 +19°C° 0 mm 6 mps 764 mmHg 74%
23:00 +17°C° 0 mm 6 mps 764 mmHg 76%

Day after tomorrow, 8 December, Tuesday

Time Temperature Precipitation Wind Pressure Humidity
00:00 +17°C° 0 mm 6 mps 764 mmHg 77%
01:00 +17°C° 0 mm 7 mps 764 mmHg 75%
02:00 +17°C° 0 mm 7 mps 764 mmHg 74%
03:00 +17°C° 0 mm 7 mps 764 mmHg 73%
04:00 +16°C° 0 mm 7 mps 764 mmHg 74%
05:00 +16°C° 0 mm 7 mps 764 mmHg 75%
06:00 +16°C° 0 mm 7 mps 764 mmHg 76%
07:00 +18°C° 0 mm 7 mps 765 mmHg 69%
08:00 +20°C° 0 mm 7 mps 765 mmHg 63%
09:00 +22°C° 0 mm 8 mps 766 mmHg 56%
10:00 +23°C° 0 mm 7 mps 765 mmHg 52%
11:00 +24°C° 0 mm 7 mps 765 mmHg 48%
12:00 +26°C° 0 mm 7 mps 764 mmHg 45%
13:00 +26°C° 0 mm 7 mps 764 mmHg 45%
14:00 +24°C° 0 mm 8 mps 764 mmHg 45%
15:00 +24°C° 0 mm 8 mps 763 mmHg 46%
16:00 +22°C° 0 mm 8 mps 764 mmHg 50%
17:00 +21°C° 0 mm 7 mps 764 mmHg 54%
18:00 +20°C° 0 mm 7 mps 764 mmHg 57%
19:00 +18°C° 0 mm 7 mps 765 mmHg 60%
20:00 +18°C° 0 mm 7 mps 765 mmHg 62%
21:00 +17°C° 0 mm 7 mps 765 mmHg 64%
22:00 +17°C° 0 mm 7 mps 765 mmHg 65%
23:00 +16°C° 0 mm 7 mps 765 mmHg 66%

9 December, Wednesday

Time Temperature Precipitation Wind Pressure Humidity
00:00 +16°C° 0 mm 7 mps 765 mmHg 67%
01:00 +16°C° 0 mm 7 mps 764 mmHg 67%
02:00 +16°C° 0 mm 7 mps 764 mmHg 67%
03:00 +16°C° 0 mm 7 mps 764 mmHg 67%
04:00 +15°C° 0 mm 6 mps 764 mmHg 68%
05:00 +15°C° 0 mm 6 mps 764 mmHg 69%
06:00 +15°C° 0 mm 6 mps 765 mmHg 70%
07:00 +17°C° 0 mm 6 mps 765 mmHg 64%
08:00 +20°C° 0 mm 6 mps 765 mmHg 59%
09:00 +22°C° 0 mm 6 mps 766 mmHg 53%
10:00 +23°C° 0 mm 6 mps 765 mmHg 48%
11:00 +24°C° 0 mm 6 mps 764 mmHg 42%
12:00 +26°C° 0 mm 6 mps 764 mmHg 37%
13:00 +26°C° 0 mm 6 mps 763 mmHg 38%
14:00 +24°C° 0 mm 7 mps 763 mmHg 40%
15:00 +24°C° 0 mm 7 mps 762 mmHg 41%
16:00 +22°C° 0 mm 7 mps 762 mmHg 46%
17:00 +21°C° 0 mm 7 mps 762 mmHg 51%
18:00 +20°C° 0 mm 7 mps 762 mmHg 56%
19:00 +18°C° 0 mm 7 mps 763 mmHg 59%
20:00 +19°C° 0 mm 6 mps 763 mmHg 62%
21:00 +17°C° 0 mm 6 mps 763 mmHg 64%
22:00 +17°C° 0 mm 6 mps 763 mmHg 67%
23:00 +17°C° 0 mm 6 mps 762 mmHg 70%

10 December, Thursday

Time Temperature Precipitation Wind Pressure Humidity
00:00 +17°C° 0 mm 6 mps 762 mmHg 73%
01:00 +17°C° 0 mm 6 mps 762 mmHg 74%
02:00 +16°C° 0 mm 6 mps 762 mmHg 74%
03:00 +16°C° 0 mm 6 mps 762 mmHg 75%
04:00 +16°C° 0 mm 6 mps 763 mmHg 76%
05:00 +16°C° 0 mm 6 mps 763 mmHg 77%
06:00 +16°C° 0 mm 6 mps 763 mmHg 78%
07:00 +19°C° 0 mm 6 mps 763 mmHg 70%
08:00 +21°C° 0 mm 6 mps 764 mmHg 62%
09:00 +23°C° 0 mm 7 mps 764 mmHg 54%
10:00 +24°C° 0 mm 7 mps 764 mmHg 48%
11:00 +26°C° 0 mm 7 mps 763 mmHg 42%
12:00 +28°C° 0 mm 6 mps 763 mmHg 36%
13:00 +28°C° 0 mm 6 mps 762 mmHg 37%
14:00 +27°C° 0 mm 6 mps 762 mmHg 37%
15:00 +27°C° 0 mm 6 mps 762 mmHg 37%
16:00 +24°C° 0 mm 6 mps 762 mmHg 43%
17:00 +23°C° 0 mm 6 mps 762 mmHg 48%
18:00 +21°C° 0 mm 6 mps 762 mmHg 54%
19:00 +20°C° 0 mm 6 mps 762 mmHg 56%
20:00 +20°C° 0 mm 5 mps 763 mmHg 59%
21:00 +19°C° 0 mm 5 mps 763 mmHg 61%
22:00 +19°C° 0 mm 6 mps 763 mmHg 62%
23:00 +19°C° 0 mm 6 mps 763 mmHg 63%

11 December, Friday

Time Temperature Precipitation Wind Pressure Humidity
00:00 +17°C° 0 mm 7 mps 763 mmHg 64%
01:00 +17°C° 0 mm 7 mps 762 mmHg 67%
02:00 +17°C° 0 mm 6 mps 762 mmHg 70%
03:00 +16°C° 0 mm 6 mps 762 mmHg 73%
04:00 +16°C° 0 mm 6 mps 763 mmHg 75%
05:00 +16°C° 0 mm 6 mps 763 mmHg 77%
06:00 +16°C° 0 mm 6 mps 763 mmHg 79%
07:00 +19°C° 0 mm 6 mps 763 mmHg 71%
08:00 +21°C° 0 mm 6 mps 764 mmHg 64%
09:00 +22°C° 0 mm 6 mps 764 mmHg 56%
10:00 +23°C° 0 mm 6 mps 763 mmHg 52%
11:00 +25°C° 0 mm 5 mps 763 mmHg 48%
12:00 +26°C° 0 mm 5 mps 762 mmHg 44%
13:00 +26°C° 0 mm 5 mps 762 mmHg 44%
14:00 +26°C° 0 mm 5 mps 762 mmHg 45%
15:00 +26°C° 0 mm 5 mps 762 mmHg 45%
16:00 +24°C° 0 mm 6 mps 762 mmHg 50%
17:00 +22°C° 0 mm 6 mps 762 mmHg 55%
18:00 +21°C° 0 mm 6 mps 763 mmHg 60%
19:00 +20°C° 0 mm 6 mps 763 mmHg 63%
20:00 +20°C° 0 mm 6 mps 763 mmHg 67%
21:00 +19°C° 0 mm 6 mps 763 mmHg 71%
22:00 +19°C° 0 mm 6 mps 763 mmHg 73%
23:00 +19°C° 0 mm 6 mps 763 mmHg 75%
Show more

We Need Your Consent

Meteoprog and our Service Providers may store and access personal data such as cookies, device identifiers or other similar technologies on your device and process such data to personalise content and ads, as well as provide social media features and to analyse the traffic.

  • Store and/or access information on your device

    Cookies, device identifiers or other information can be stored or accessed on your device for the purposes indicated above.

  • Personalised ads and content, ad and content measurement, audience insights, and products development

    Ads and content can be personalised based on a profile. More data can be added to better personalise ads and content. Ad and content performance can be measured. Insights about the audience who saw the ads and content can be derived. Such data can be used to develop or improve user’s experience, systems and software.

By clicking ‘I Agree’ you will allow the use of indicated cookies, device identifiers, web beacons or other similar technologies. Your settings can be changed in the browser on your device.

For certain purposes, legitimate interests may be relied on, rather than consent. You can read more about this in our Privacy and Cookie Policy.